Tracking 30918 objects as of 3-Jul-2025
HD Live streaming from Space Station
objects crossing your sky now

FENGYUN 1C DEB

Track FENGYUN 1C DEB now!
10-day predictions


NORAD ID: 31323
Int'l Code: 1999-025BQB
Perigee: 788.2 km
Apogee: 834.8 km
Inclination: 99.4 °
Period: 101.0 minutes
Semi major axis: 7182 km
RCS: 0.0017 m2 (small)
Launch date: May 10, 1999
Source: People's Republic of China (PRC)
Launch site: Taiyaun Space Center, China (TSC)

Note: This is SATELLITE DEBRIS
Your satellite tracking list
THOR ABLESTAR DEB
Track 1 satellite(s)




NASA's NSSDC Master Catalog

Two Line Element Set (TLE):
1 31323U 99025BQB 25183.80579610  .00002540  00000-0  10745-2 0  9992
2 31323  99.4294 209.7829 0032413 178.7437 181.3828 14.26238262937925
Source of the keplerian elements: AFSPC